Home > Time Zones > World Clock > Weather > Germany > Ulm > Past weeks

Flag for Germany Weather past 2 weeks in Ulm, Baden-Württemberg, Germany

Now
55 °F

Broken clouds.


Feels Like: 55 °F
Forecast: 44 / 63 °F
Wind: 2 mph from North

Location: Laupheim Airport

Current Time: Sep 1, 2014 at 2:20:16 PM

Latest Report: Sep 1, 2014 at 1:20 PM


Visibility: N/A

Pressure: 30.15 "Hg

Humidity: 77%

Dew point: 48 °F

Location of UlmLocation

Historic Weather in Ulm — Graph

°F

Ulm temperature yesterday

Maximum temperature yesterday: 59 °F (at 12:20 AM)
Minimum temperature yesterday: 52 °F (at 5:20 PM)
Average temperature yesterday: 56 °F

Past Weeks' High & Low Weather Summary

 TemperatureHumidityPressure
High72 °F (Aug 28, 3:20 PM)100% (Aug 19, 3:20 AM)30.15 "Hg (Aug 19, 3:20 AM)
Low45 °F (Aug 22, 6:20 AM)43% (Aug 19, 5:20 PM)29.74 "Hg (Aug 26, 6:20 AM)
Average58 °F79%30.01 "Hg
* Reported Aug 17 12:20 PM — Sep 1 12:20 PM, Ulm, Weather by CustomWeather, © 2014

Note: Actual official high and low records may vary slightly from our data, if they occured in-between our weather recording intervals... More about our weather records

Advertising

Ulm weather history for previous 24 hours

 ConditionsComfort  
Time TempWeatherWind HumidityBarometerVisibility
12:20 PM
Sep 1
54 °FPartly sunny.3 mph82%30.12 "HgN/A
11:20 AM55 °FBroken clouds.7 mph77%30.12 "HgN/A
10:20 AM54 °FScattered clouds.5 mph82%30.12 "HgN/A
9:20 AM54 °FScattered clouds.5 mph88%30.12 "HgN/A
8:20 AM52 °FScattered clouds.2 mph94%30.09 "HgN/A
7:20 AM52 °FPassing clouds.1 mph94%30.07 "Hg6 mi
6:20 AM52 °FPartly cloudy.1 mph94%30.07 "HgN/A
5:20 AM52 °FPassing clouds.3 mph94%30.04 "HgN/A
4:20 AM50 °FPassing clouds.2 mph100%30.04 "HgN/A
3:20 AM52 °FSprinkles. Partly cloudy.3 mph94%30.04 "HgN/A
2:20 AM52 °FPassing clouds.5 mph100%30.04 "Hg6 mi
1:20 AM52 °FPartly cloudy.2 mph100%30.04 "HgN/A
12:20 AM52 °FPartly cloudy.5 mph94%30.04 "HgN/A
11:20 PM
Aug 31
52 °FPartly cloudy.7 mph94%30.04 "HgN/A
10:20 PM52 °FSprinkles. Partly cloudy.8 mph94%30.04 "HgN/A
9:20 PM52 °FPartly cloudy.7 mph94%30.04 "HgN/A
8:20 PM52 °FCool.8 mph94%30.04 "Hg5 mi
7:20 PM52 °FCool.8 mph94%30.04 "Hg6 mi
6:20 PM52 °FCool.7 mph88%30.01 "Hg6 mi
5:20 PM52 °FCool.8 mph94%30.01 "Hg5 mi
4:20 PM54 °FCool.8 mph94%30.01 "Hg3 mi
3:20 PM55 °FRain. Mostly cloudy.7 mph94%30.01 "Hg4 mi
2:20 PM57 °FCool.8 mph94%29.98 "Hg2 mi
Weather by CustomWeather, © 2014

See weather overviewHow to use our weather pages